BAW8DS KLAX-EGLL

Flight info

Callsign BAW8DS
Flight time N/A
Altitude 33000
Route DOTSS2 CLEEE DCT PKE DCT HIDAT DCT KA27O DCT NABOB DCT KA27S DCT KA33W DCT KK39A DCT KK51G/N0491F350 DCT KK54I DCT KG66O DCT GADAV DCT ANCER N795B JANJO/M084F370 NATT KESIX/N0487F370 DCT LUTOV DCT NIPIT DCT BOFUM Q37 MALUD Q38 NUGRA
Aircraft B77W/H-SDE1E2E3FGHIJ2J3J4J5M1RWXY/LB1D1

Departure

Time 2026-05-06 23:34
Airport Los Angeles International Airport (KLAX)

Arrival

Time N/A
Airport London Heathrow Airport (EGLL)
Time Latitude Longitude Altitude Speed Heading
2026-05-06 23:15 33.93959 -118.40915 98 ft 0 kts 290°
2026-05-06 23:22 33.93958 -118.40912 98 ft 3 kts 289°
2026-05-06 23:22 33.93952 -118.40882 99 ft 4 kts 271°
2026-05-06 23:22 33.93956 -118.40852 97 ft 4 kts 236°
2026-05-06 23:23 33.93975 -118.40832 97 ft 4 kts 198°
2026-05-06 23:23 33.94001 -118.40826 97 ft 4 kts 180°
2026-05-06 23:23 33.94028 -118.40828 99 ft 4 kts 172°
2026-05-06 23:23 33.94043 -118.40831 97 ft 0 kts 173°
2026-05-06 23:27 33.94037 -118.40830 96 ft 2 kts 173°
2026-05-06 23:27 33.94020 -118.40827 96 ft 5 kts 172°
2026-05-06 23:27 33.93945 -118.40815 99 ft 12 kts 172°
2026-05-06 23:27 33.93877 -118.40772 101 ft 11 kts 140°
2026-05-06 23:28 33.93819 -118.40712 101 ft 11 kts 120°
2026-05-06 23:28 33.93815 -118.40620 100 ft 12 kts 83°
2026-05-06 23:28 33.93827 -118.40506 101 ft 15 kts 83°
2026-05-06 23:28 33.93841 -118.40357 101 ft 19 kts 83°
2026-05-06 23:29 33.93858 -118.40196 101 ft 19 kts 83°
2026-05-06 23:29 33.93875 -118.40035 101 ft 19 kts 83°
2026-05-06 23:29 33.93892 -118.39874 100 ft 19 kts 83°
2026-05-06 23:29 33.93907 -118.39712 100 ft 19 kts 83°
2026-05-06 23:30 33.93924 -118.39551 100 ft 19 kts 82°
2026-05-06 23:30 33.93942 -118.39377 101 ft 24 kts 83°
2026-05-06 23:30 33.93962 -118.39178 100 ft 24 kts 83°
2026-05-06 23:30 33.93983 -118.38973 101 ft 25 kts 83°
2026-05-06 23:31 33.94005 -118.38763 99 ft 25 kts 83°
2026-05-06 23:31 33.94026 -118.38557 101 ft 25 kts 83°
2026-05-06 23:31 33.94047 -118.38357 100 ft 21 kts 83°
2026-05-06 23:31 33.94064 -118.38185 99 ft 20 kts 83°
2026-05-06 23:32 33.94076 -118.38073 98 ft 0 kts 83°
2026-05-06 23:32 33.94078 -118.38048 98 ft 5 kts 84°
2026-05-06 23:32 33.94064 -118.38014 100 ft 5 kts 145°
2026-05-06 23:32 33.94031 -118.38005 99 ft 6 kts 168°
2026-05-06 23:33 33.93984 -118.38022 99 ft 8 kts 236°
2026-05-06 23:33 33.93976 -118.38084 98 ft 7 kts 264°
2026-05-06 23:33 33.93970 -118.38153 99 ft 14 kts 264°
2026-05-06 23:33 33.93938 -118.38463 107 ft 70 kts 263°
2026-05-06 23:34 33.93852 -118.39317 101 ft 134 kts 263°
2026-05-06 23:34 33.93714 -118.40629 152 ft 176 kts 262°
2026-05-06 23:34 33.93561 -118.42127 584 ft 184 kts 263°
2026-05-06 23:34 33.93399 -118.43686 1161 ft 190 kts 262°
2026-05-06 23:35 33.93245 -118.45232 1998 ft 179 kts 264°
2026-05-06 23:35 33.92976 -118.46690 2489 ft 184 kts 239°
2026-05-06 23:35 33.92068 -118.47847 2580 ft 192 kts 225°
2026-05-06 23:35 33.91092 -118.49001 2743 ft 206 kts 227°
2026-05-06 23:36 33.90099 -118.50375 2939 ft 230 kts 231°
2026-05-06 23:36 33.89029 -118.51933 3269 ft 251 kts 231°
2026-05-06 23:36 33.87874 -118.53601 3798 ft 265 kts 231°
2026-05-06 23:36 33.86608 -118.55255 4357 ft 274 kts 217°
2026-05-06 23:37 33.84823 -118.56094 4904 ft 285 kts 181°
2026-05-06 23:37 33.82878 -118.55746 5621 ft 283 kts 164°
2026-05-06 23:37 33.80967 -118.55173 6461 ft 284 kts 165°
2026-05-06 23:37 33.79047 -118.54625 7265 ft 283 kts 164°
2026-05-06 23:38 33.77105 -118.54085 7940 ft 289 kts 165°
2026-05-06 23:38 33.75127 -118.53545 8618 ft 294 kts 164°
2026-05-06 23:38 33.73107 -118.52997 9313 ft 300 kts 164°
2026-05-06 23:38 33.71110 -118.52320 10005 ft 297 kts 149°
2026-05-06 23:39 33.69531 -118.50774 10392 ft 299 kts 121°
2026-05-06 23:39 33.68607 -118.48489 10536 ft 312 kts 105°
2026-05-06 23:39 33.67880 -118.45929 10723 ft 336 kts 105°
2026-05-06 23:39 33.67083 -118.43182 10959 ft 358 kts 106°
2026-05-06 23:40 33.66241 -118.40321 11509 ft 369 kts 106°
2026-05-06 23:40 33.65375 -118.37395 12184 ft 376 kts 107°
2026-05-06 23:40 33.64539 -118.34423 12901 ft 373 kts 101°
2026-05-06 23:40 33.64274 -118.31332 13348 ft 375 kts 86°
2026-05-06 23:41 33.64344 -118.28170 13960 ft 382 kts 86°
2026-05-06 23:41 33.64399 -118.24975 14724 ft 383 kts 86°
2026-05-06 23:41 33.64435 -118.21766 15482 ft 386 kts 86°
2026-05-06 23:41 33.64455 -118.18525 16176 ft 391 kts 87°
2026-05-06 23:42 33.64465 -118.15245 16849 ft 396 kts 87°
2026-05-06 23:42 33.64468 -118.11924 17517 ft 400 kts 87°
2026-05-06 23:42 33.64467 -118.08568 18207 ft 404 kts 87°
2026-05-06 23:42 33.64464 -118.05181 18863 ft 407 kts 87°
2026-05-06 23:43 33.64459 -118.01778 19553 ft 408 kts 87°
2026-05-06 23:43 33.64454 -117.98357 20157 ft 412 kts 87°
2026-05-06 23:43 33.64448 -117.94899 20713 ft 417 kts 87°
2026-05-06 23:43 33.64442 -117.91400 21283 ft 421 kts 87°
2026-05-06 23:44 33.64434 -117.87874 21860 ft 425 kts 86°
2026-05-06 23:44 33.64426 -117.84316 22434 ft 428 kts 86°
2026-05-06 23:44 33.64417 -117.80728 22997 ft 432 kts 86°
2026-05-06 23:44 33.64652 -117.77145 23503 ft 431 kts 76°
2026-05-06 23:45 33.65322 -117.73627 23947 ft 433 kts 73°
2026-05-06 23:45 33.66074 -117.70127 24456 ft 435 kts 72°
2026-05-06 23:45 33.66574 -117.67793 24789 ft 436 kts 73°
2026-05-06 23:45 33.67313 -117.64260 25297 ft 437 kts 73°
2026-05-06 23:46 33.68029 -117.60704 25799 ft 439 kts 73°
2026-05-06 23:46 33.68729 -117.57124 26210 ft 442 kts 73°
2026-05-06 23:46 33.69418 -117.53518 26636 ft 444 kts 74°
2026-05-06 23:46 33.70111 -117.49890 27100 ft 446 kts 74°
2026-05-06 23:47 33.70803 -117.46262 27559 ft 448 kts 74°
2026-05-06 23:47 33.71497 -117.42609 28018 ft 449 kts 74°
2026-05-06 23:47 33.72194 -117.38937 28444 ft 452 kts 74°
2026-05-06 23:47 33.72893 -117.35250 28807 ft 454 kts 74°
2026-05-06 23:48 33.73594 -117.31545 29163 ft 456 kts 74°